Other Surface Observations
Issued by NWS Upton, NY

Current Version | Previous Version | Text Only | Print | Product List | Glossary Off
Versions: 1 2 3 4 5 6 7 8 9 10 11 12 13 14 15 16 17 18 19 20 21 22 23 24 25 26 27 28 29 30 31 32 33 34 35 36 37 38 39 40 41 42 43 44 45 46 47 48 49 50
000 SXUS51 KOKX 020357 OSOOKX NEW YORK CITY METROPOLITAN WEATHER ROUNDUP NATIONAL WEATHER SERVICE NEW YORK NY 1200 AM EDT THU OCT 02 2014 CITY SKY/WX TMP DP RH WIND PRES REMARKS CENTRAL PARK CLOUDY 61 56 83 NE5 30.11R LAGUARDIA APRT CLOUDY 61 57 87 NE9 30.08S KENNEDY INTL CLOUDY 62 56 80 NE12 30.08S NEWARK/LIBERTY CLOUDY 63 56 78 NE10 30.08S TETERBORO APRT LGT RAIN 62 55 77 NE7 30.08R BNX BOT. GARD. N/A 59 55 88 N5 30.09F >>>>>>>>>>>>>>>>>>>>>>>>>>>>>>>>> KEY <<<<<<<<<<<<<<<<<<<<<<<<<<<<<<< > SKY/WX - SKY CONDITION/ : R : WCI - WIND CHILL INDEX < > PRESENT WEATHER : E : VSB - VISIBILITY IN MILES < > TMP - TEMPERATURE IN DEG F : M : HX - HEAT INDEX < > DP - DEW POINT TEMPERATURE : A : TC - TEMPERATURE IN < > RH - RELATIVE HUMIDITY : R : CELSIUS < > WIND - DIRECTION/SPEED (MPH) : K : VRB - VARIABLE WIND DIR < > PRES - PRESSURE (IN HG) : S : < >>>>>>>>>>>>>>>>>>>>>>>>>>>>>>>>> KEY <<<<<<<<<<<<<<<<<<<<<<<<<<<<<<<

USA.gov is the U.S. government's official web portal to all federal, state and local government web resources and services.